Location: Arborea
(39.7744°N, 8.5819°E)
Time: 03:48:15
(UTC+00:00)

USA 229 - Pass Details

Date: 31 May 2022
Orbit: 938 x 1274 km, 63.4° (Epoch: 24 May)

Event Time Altitude Azimuth Distance (km) Brightness Sun altitude
Rises 20:34:21 0° 330° (NNW) 3,918 8.3 -16.7°
Reaches altitude 10° 20:38:00 10° 348° (NNW) 3,024 7.0 -17.2°
Maximum altitude 20:42:51 19° 31° (NNE) 2,518 5.9 -17.8°
Drops below altitude 10° 20:47:53 10° 73° (ENE) 3,172 6.0 -18.4°
Enters shadow 20:50:44 - 87° (E) 3,880 6.3 -18.7°
